TimeCST,TemperatureF,Dew PointF,Humidity,Sea Level PressureIn,VisibilityMPH,Wind Direction,Wind SpeedMPH,Gust SpeedMPH,PrecipitationIn,Events,Conditions,WindDirDegrees,DateUTC
12:53 AM,17.1,8.1,68,30.18,10.0,South,5.8,-,N/A,,Clear,190,2013-01-16 06:53:00
1:53 AM,18.0,8.1,65,30.16,10.0,SW,5.8,-,N/A,,Clear,220,2013-01-16 07:53:00
2:53 AM,21.2,10.4,63,30.11,10.0,SSW,6.9,-,N/A,,Clear,210,2013-01-16 08:53:00
3:53 AM,21.0,10.0,63,30.13,10.0,SW,8.1,-,N/A,,Clear,220,2013-01-16 09:53:00
4:53 AM,19.9,10.0,65,30.10,10.0,SW,9.2,-,N/A,,Clear,220,2013-01-16 10:53:00
5:53 AM,23.0,10.4,59,30.06,10.0,SW,9.2,-,N/A,,Clear,230,2013-01-16 11:53:00
6:53 AM,23.0,12.0,63,30.07,10.0,SW,12.7,-,N/A,,Clear,220,2013-01-16 12:53:00
7:53 AM,21.9,12.0,66,30.07,10.0,SSW,9.2,-,N/A,,Partly Cloudy,210,2013-01-16 13:53:00
8:53 AM,27.0,14.0,58,30.08,10.0,SW,11.5,-,N/A,,Partly Cloudy,220,2013-01-16 14:53:00
9:53 AM,30.9,17.1,57,30.08,10.0,SW,11.5,-,N/A,,Scattered Clouds,220,2013-01-16 15:53:00
10:53 AM,33.1,17.1,52,30.06,10.0,SW,12.7,-,N/A,,Mostly Cloudy,220,2013-01-16 16:53:00
11:53 AM,37.0,18.0,46,30.05,10.0,SW,11.5,-,N/A,,Mostly Cloudy,220,2013-01-16 17:53:00
12:53 PM,41.0,19.9,43,30.04,10.0,SW,13.8,-,N/A,,Scattered Clouds,230,2013-01-16 18:53:00
1:53 PM,44.6,21.2,39,30.01,10.0,SW,10.4,-,N/A,,Scattered Clouds,230,2013-01-16 19:53:00
2:53 PM,46.0,25.0,44,30.03,10.0,WSW,8.1,-,N/A,,Partly Cloudy,250,2013-01-16 20:53:00
3:53 PM,46.0,26.1,46,30.04,10.0,WSW,9.2,-,N/A,,Clear,250,2013-01-16 21:53:00
4:53 PM,43.0,27.0,53,30.06,10.0,SW,5.8,-,N/A,,Clear,230,2013-01-16 22:53:00
5:53 PM,37.9,25.0,60,30.07,10.0,SSW,8.1,-,N/A,,Clear,200,2013-01-16 23:53:00
6:53 PM,37.0,26.1,65,30.11,10.0,SSW,6.9,-,N/A,,Clear,210,2013-01-17 00:53:00
7:53 PM,37.0,26.1,65,30.13,10.0,WSW,6.9,-,N/A,,Clear,240,2013-01-17 01:53:00
8:53 PM,37.0,27.0,67,30.13,10.0,WSW,6.9,-,N/A,,Clear,240,2013-01-17 02:53:00
9:53 PM,37.9,27.0,65,30.14,10.0,West,5.8,-,N/A,,Clear,260,2013-01-17 03:53:00
10:53 PM,36.0,27.0,70,30.17,10.0,NW,8.1,-,N/A,,Clear,320,2013-01-17 04:53:00
11:53 PM,35.1,27.0,72,30.21,10.0,NNW,9.2,-,N/A,,Clear,330,2013-01-17 05:53:00